Location: Kaleüça??z
(36.1972°N, 29.8486°E)
Time: 03:34:50
(UTC+00:00)

Daily predictions for brighter satellites

Satellite Brightness Start Highest point End
(mag) Time Altitude Azimuth Time Altitude Azimuth Time Altitude Azimuth
SJ 16-02 4.2 01:33:00 12° ESE 01:33:00 12° ESE 01:33:28 10° ESE
NOSS 3-1 (C) 4.2 01:35:00 75° SSE 01:35:00 75° SSE 01:43:17 10° SSE
Cosmos 1980 Rocket 3.6 01:41:31 31° NE 01:41:31 31° NE 01:44:23 10° NNE
ATLAS 3B R/B 4.2 01:40:33 20° N 01:45:17 36° NE 01:52:10 10° ESE
Atlas Centaur 2 4.0 01:50:15 15° ESE 01:50:15 15° ESE 01:51:05 10° ESE
CZ-3 Stage 3 4.2 01:50:45 58° S 01:50:45 58° S 01:54:46 10° ESE
ATLAS 2AS CENTAUR R/B 3.8 01:59:55 31° N 01:59:55 31° N 02:04:00 10° NNE
Cosmos 44 Rocket 4.3 02:01:27 41° ESE 02:01:27 41° ESE 02:04:47 10° SE
Cosmos 1818 4.5 02:10:41 38° N 02:10:41 38° N 02:14:06 10° NNE
Lacrosse 4 Rocket 3.2 02:13:10 24° NE 02:14:06 27° ENE 02:17:35 10° ESE
Cosmos 2263 Rocket 2.8 02:18:15 22° N 02:21:49 54° ENE 02:27:17 10° SE
Cosmos 2266 Rocket 3.9 02:15:59 10° S 02:22:22 79° W 02:28:48 10° N
Cosmos 2285 Rocket 3.9 02:26:36 41° NNW 02:28:56 73° WSW 02:35:17 10° S
Cosmos 2227 Rocket 2.6 02:32:00 43° SW 02:32:00 43° SW 02:36:17 10° S
Delta 2 Rocket 3.3 02:35:44 80° SE 02:35:44 80° SE 02:39:39 10° E
SL-16 R/B 3.4 02:32:53 10° S 02:38:09 42° ESE 02:43:26 10° NE
Gbstr 26 Del rocket 3.1 02:40:13 59° NNW 02:40:13 59° NNW 02:45:10 10° NE
Cosmos 1655 Rocket 3.9 02:35:08 10° S 02:41:32 87° W 02:47:55 10° N
Cosmos 1437 Rocket 4.0 02:38:18 10° SSE 02:41:36 37° E 02:44:57 10° NNE
Cosmos 968 Rocket 3.8 02:46:01 44° WSW 02:46:01 44° WSW 02:50:34 10° S
ATLAS 2A CENTAUR R/B 3.7 02:45:28 21° SSW 02:46:56 25° S 02:54:05 10° ESE
Cosmos 2084 Rocket 3.6 02:45:19 23° SSW 02:47:57 71° ESE 02:52:12 10° NE
SL-08 RB Rocket 3.9 02:44:54 10° NNE 02:49:30 72° ESE 02:54:04 10° S
S3M 4.0 02:48:25 10° NNW 02:54:29 57° W 03:00:28 10° SSW
Cosmos 1484 Rocket 2.5 02:53:05 10° N 03:01:22 - SSW 02:56:15 60° NW
DELTA 2 R/B (1) 3.8 02:55:12 36° WNW 02:57:21 61° N 03:02:51 10° E
Cosmos 2219 3.1 02:53:44 22° NNW 02:57:23 64° WSW 03:02:56 10° S
USA 215 3.5 02:53:36 10° NE 03:00:07 69° SE 03:06:36 10° SW
Cosmos 2333 Rocket 4.1 02:58:48 10° SSE 03:03:47 32° ESE 03:08:47 10° NE
H-2A R/B 3.8 03:01:32 10° NNW 03:02:39 15° NNW 03:02:39 15° NNW
Meteor 1-24 Rocket 4.1 03:01:16 10° SW 03:06:19 36° WNW 03:11:16 10° N
SJ 16-02 3.0 03:09:46 17° SW 03:09:46 17° SW 03:11:21 10° SSW
Cosmos 2278 3.6 03:03:15 10° SSW 03:08:53 87° WNW 03:14:33 10° NNE
Cosmos 1328 3.4 03:05:14 10° S 03:08:57 80° W 03:12:40 10° N
Cosmos 2221 Rocket 3.7 03:10:15 10° S 03:14:36 78° E 03:19:01 10° N
ARGOS 3.3 03:10:38 10° N 03:15:49 48° WNW 03:20:59 10° SW
ARIANE 5 R/B 3.5 03:11:43 10° NNE 03:16:40 51° E 03:21:37 10° S
Cosmos 2322 Rocket 3.0 03:12:17 10° S 03:17:47 56° ESE 03:23:17 10° NNE
Thor Agena Rocket 4.1 03:13:36 10° N 03:18:14 34° WNW 03:22:48 10° SW
Meteor 2-20 Rocket 4.3 03:13:19 10° NNW 03:19:02 59° W 03:24:38 10° S
Cosmos 1844 Rocket 4.3 03:16:24 10° N 03:21:27 33° ENE 03:26:26 10° SE
USA 281 3.3 03:15:42 10° S 03:22:08 59° WSW 03:28:37 10° NNW
Cosmos 1980 Rocket 3.6 03:23:21 17° NW 03:23:21 17° NW 03:26:54 10° NNW
YAOGAN 11 4.5 03:25:19 10° SSE 03:29:35 66° ENE 03:33:56 10° N
Sich 1 Rocket 3.6 03:26:51 10° N 03:31:21 87° ENE 03:35:52 10° S
IRS-1C 4.3 03:28:28 10° NNE 03:33:49 79° ESE 03:39:08 10° S
Nadezhda 2 Rocket 4.5 03:28:43 10° SSW 03:35:06 74° W 03:41:28 10° N
Atlas Centaur 2 2.5 03:32:24 13° WSW 03:35:12 28° SSW 03:38:20 10° SE
Cosmos 1378 Rocket 4.0 03:31:13 10° SSW 03:35:18 37° W 03:39:24 10° N
ATLAS 3B R/B 3.2 03:28:45 10° NW 03:36:19 53° WSW 03:43:32 10° S
Cosmos 1674 Rocket 3.8 03:33:10 10° SSW 03:37:15 44° W 03:41:23 10° N
Cosmos 1025 Rocket 3.1 03:33:47 10° S 03:38:00 80° E 03:42:15 10° N
H-2A R/B 1.4 03:36:42 10° N 03:39:09 72° WNW 03:41:35 10° SSW
ARIANE 6 FM1 Upper Stage 3.5 03:39:45 10° WSW 03:43:28 30° NW 03:47:14 10° NNE
COSMO-SKYMED 1 2.7 03:39:19 10° S 03:43:31 51° W 03:47:45 10° NNW
Cosmos 371 Rocket 3.7 03:39:41 10° NNW 03:44:15 42° WSW 03:48:46 10° S
Okean 2 Rocket 3.2 03:42:43 10° NNW 03:47:05 56° W 03:51:25 10° S
Cosmos 1486 Rocket 4.2 03:42:23 10° NNW 03:47:36 76° ENE 03:52:48 10° SSE
NOAA 12 4.3 03:43:03 10° N 03:48:09 47° WNW 03:53:13 10° SW
NOSS 2-1 (D) 4.3 03:44:43 10° NNW 03:48:53 62° ENE 03:54:44 10° SE
Cosmos 2219 Rocket 3.8 03:43:41 10° S 03:48:53 40° ESE 03:54:06 10° NE
In-Cosmos 22 Rocket 4.4 03:43:11 10° S 03:48:59 83° E 03:54:46 10° N
Cosmos 332 Rocket 4.3 03:45:04 10° NNW 03:49:55 64° ENE 03:54:43 10° SSE
Lacrosse 4 Rocket 2.6 03:49:00 11° WNW 03:52:03 22° WSW 03:55:10 10° SSW
Cosmos 2227 4.2 03:50:35 10° NNW 03:56:16 78° WSW 04:01:57 10° SSE
CRYOSAT 2 4.4 03:51:46 10° S 03:56:36 66° W 04:01:28 10° N
Cosmos 2098 Rocket 2.2 03:54:03 10° NNW 03:57:32 63° W 04:00:32 10° S
USA 59 Rocket 0.6 03:55:07 10° NNW 03:59:24 76° ENE 04:05:31 10° SE
Nadezhda 1 Rocket 4.1 03:57:26 10° N 04:03:35 81° E 04:09:38 10° S
Cosmos 2263 Rocket 3.6 04:01:35 10° WNW 04:05:11 18° W 04:08:45 10° SW
Cosmos 2333 4.4 04:00:06 10° SSW 04:05:46 82° ESE 04:11:25 10° NNE
